Location: *
(33.8649°S, 62.1526°E)
Time: 13:07:10
(UTC+00:00)

Cosmos 1932 - Pass Details

Date: 17 January 2021
Orbit: 933 x 997 km, 65.0° (Epoch: 02 March)

Event Time Altitude Azimuth Distance (km) Brightness Sun altitude
Rises 21:50:30 0° 210° (SSW) 3,681 7.9 -29.7°
Reaches altitude 10° 21:53:04 10° 210° (SSW) 2,738 7.2 -29.5°
Maximum altitude 21:59:30 83° 296° (WNW) 1,001 4.3 -28.8°
Enters shadow 21:59:39 82° 323° (NW) 1,003 4.3 -28.8°
